�������l�o���
Date,Time,MP-1(��Sv/h),MP-2(��Sv/h),MP-3(��Sv/h),MP-4(��Sv/h),MP-5(��Sv/h),MP-6(��Sv/h),MP-7(��Sv/h),MP-8(��Sv/h),����,����(m/s),���J
2022/07/03,00:00,0.607,0.888,0.560,1.075,0.767,0.351,0.609,0.572,��쐼,0.6,��
2022/07/03,00:10,0.607,0.888,0.560,1.074,0.766,0.351,0.607,0.571,-,CALM,��
2022/07/03,00:20,0.605,0.885,0.560,1.073,0.766,0.352,0.608,0.573,-,CALM,��
2022/07/03,00:30,0.608,0.888,0.561,1.073,0.768,0.352,0.609,0.573,�쐼,0.6,��
2022/07/03,00:40,0.608,0.889,0.559,1.072,0.765,0.351,0.609,0.572,��쐼,1.2,��
2022/07/03,00:50,0.607,0.887,0.559,1.074,0.766,0.352,0.608,0.572,��쐼,1.7,��
2022/07/03,01:00,0.606,0.887,0.561,1.073,0.766,0.351,0.609,0.572,��쐼,1.4,��
2022/07/03,01:10,0.608,0.887,0.560,1.073,0.767,0.352,0.607,0.572,��,2.0,��
2022/07/03,01:20,0.607,0.887,0.561,1.074,0.766,0.352,0.609,0.573,��,2.0,��
2022/07/03,01:30,0.606,0.889,0.561,1.074,0.766,0.352,0.609,0.572,��,2.3,��
2022/07/03,01:40,0.607,0.889,0.561,1.072,0.767,0.351,0.607,0.571,��,2.6,��
2022/07/03,01:50,0.606,0.888,0.562,1.074,0.768,0.351,0.610,0.572,��,2.6,��
2022/07/03,02:00,0.607,0.886,0.562,1.074,0.766,0.351,0.609,0.573,��,2.9,��
2022/07/03,02:10,0.606,0.887,0.561,1.076,0.766,0.351,0.608,0.572,��,3.5,��
2022/07/03,02:20,0.608,0.889,0.561,1.075,0.766,0.352,0.608,0.572,��,3.7,��
2022/07/03,02:30,0.607,0.886,0.561,1.074,0.767,0.352,0.608,0.574,��,4.2,��
2022/07/03,02:40,0.607,0.889,0.562,1.073,0.767,0.352,0.607,0.573,��,2.3,��
2022/07/03,02:50,0.607,0.886,0.561,1.076,0.766,0.352,0.608,0.572,-,CALM,��
2022/07/03,03:00,0.608,0.888,0.562,1.074,0.764,0.352,0.609,0.572,�k,0.6,��
2022/07/03,03:10,0.608,0.888,0.561,1.075,0.766,0.352,0.609,0.573,�k�k��,2.3,��
2022/07/03,03:20,0.608,0.890,0.561,1.075,0.765,0.352,0.609,0.572,�k�k��,2.8,��
2022/07/03,03:30,0.607,0.887,0.561,1.076,0.768,0.351,0.608,0.571,�k�k��,4.5,��
2022/07/03,03:40,0.609,0.887,0.560,1.076,0.766,0.351,0.610,0.571,�k�k��,4.9,��
2022/07/03,03:50,0.608,0.886,0.561,1.075,0.766,0.351,0.609,0.573,�k�k��,5.9,��
2022/07/03,04:00,0.607,0.889,0.563,1.073,0.766,0.352,0.609,0.573,�k�k��,5.9,��
2022/07/03,04:10,0.606,0.887,0.560,1.075,0.766,0.351,0.608,0.571,�k,4.7,��
2022/07/03,04:20,0.607,0.888,0.559,1.072,0.765,0.351,0.609,0.572,�k�k��,5.3,��
2022/07/03,04:30,0.606,0.886,0.561,1.072,0.764,0.351,0.609,0.573,�k�k��,4.9,��
2022/07/03,04:40,0.606,0.888,0.560,1.075,0.765,0.350,0.608,0.572,�k�k��,4.4,��
2022/07/03,04:50,0.608,0.886,0.560,1.075,0.764,0.350,0.607,0.572,�k�k��,4.1,��
2022/07/03,05:00,0.607,0.885,0.561,1.073,0.764,0.352,0.609,0.572,�k�k��,3.6,��
2022/07/03,05:10,0.606,0.886,0.560,1.074,0.766,0.351,0.609,0.572,�k,2.8,��
2022/07/03,05:20,0.604,0.887,0.560,1.073,0.765,0.351,0.608,0.571,�k,2.6,��
2022/07/03,05:30,0.607,0.888,0.559,1.074,0.766,0.352,0.610,0.572,�k�k��,1.7,��
2022/07/03,05:40,0.608,0.887,0.559,1.074,0.765,0.350,0.608,0.572,�k�k��,1.9,��
2022/07/03,05:50,0.606,0.886,0.559,1.075,0.766,0.349,0.610,0.572,�k�k��,2.6,��
2022/07/03,06:00,0.605,0.888,0.561,1.074,0.765,0.351,0.610,0.572,�k��,2.5,��
2022/07/03,06:10,0.605,0.888,0.559,1.074,0.764,0.353,0.609,0.572,�k��,2.8,��
2022/07/03,06:20,0.606,0.888,0.560,1.075,0.766,0.351,0.609,0.571,�k�k��,3.2,��
2022/07/03,06:30,0.607,0.887,0.559,1.073,0.763,0.353,0.610,0.573,�k�k��,2.5,��
2022/07/03,06:40,0.607,0.888,0.560,1.074,0.765,0.351,0.608,0.573,�k�k��,2.6,��
2022/07/03,06:50,0.607,0.887,0.560,1.072,0.766,0.352,0.610,0.573,�k�k��,2.3,��
2022/07/03,07:00,0.606,0.887,0.561,1.073,0.766,0.352,0.608,0.573,�k,2.5,��
2022/07/03,07:10,0.607,0.888,0.560,1.071,0.767,0.352,0.610,0.573,�k,1.5,��
2022/07/03,07:20,0.605,0.888,0.558,1.072,0.765,0.352,0.609,0.572,�k,1.5,��
2022/07/03,07:30,0.605,0.884,0.559,1.073,0.766,0.352,0.610,0.574,�k�k��,1.7,��
2022/07/03,07:40,0.605,0.886,0.560,1.073,0.764,0.351,0.609,0.573,�k�k��,2.2,��
2022/07/03,07:50,0.605,0.887,0.558,1.074,0.764,0.350,0.609,0.574,�k�k��,2.6,��
2022/07/03,08:00,0.604,0.885,0.559,1.074,0.765,0.350,0.610,0.570,�k�k��,2.3,��
2022/07/03,08:10,0.604,0.888,0.560,1.073,0.763,0.351,0.608,0.570,�k��,2.6,��
2022/07/03,08:20,0.605,0.888,0.559,1.073,0.764,0.350,0.608,0.569,�k�k��,3.3,��
2022/07/03,08:30,0.604,0.886,0.560,1.073,0.763,0.350,0.609,0.571,�k�k��,4.3,��
2022/07/03,08:40,0.605,0.885,0.559,1.069,0.764,0.348,0.609,0.570,�k�k��,4.0,��
2022/07/03,08:50,0.606,0.887,0.558,1.075,0.764,0.348,0.610,0.571,�k�k��,3.6,��
2022/07/03,09:00,0.605,0.887,0.558,1.071,0.763,0.351,0.611,0.570,�k�k��,3.9,��
2022/07/03,09:10,0.605,0.886,0.559,1.070,0.765,0.349,0.610,0.570,�k�k��,3.9,��
2022/07/03,09:20,0.606,0.886,0.560,1.070,0.765,0.349,0.609,0.569,�k�k��,2.8,��
2022/07/03,09:30,0.605,0.885,0.558,1.073,0.766,0.348,0.610,0.571,�k�k��,2.9,��
2022/07/03,09:40,0.605,0.887,0.558,1.075,0.764,0.349,0.612,0.570,�k��,2.5,��
2022/07/03,09:50,0.606,0.888,0.560,1.074,0.768,0.349,0.611,0.570,�k�k��,2.5,��
2022/07/03,10:00,0.603,0.888,0.559,1.071,0.767,0.348,0.610,0.571,�k��,2.5,��
2022/07/03,10:10,0.605,0.888,0.559,1.073,0.764,0.350,0.611,0.571,�k��,2.3,��
2022/07/03,10:20,0.604,0.885,0.560,1.075,0.767,0.349,0.609,0.571,�k�k��,3.0,��
2022/07/03,10:30,0.605,0.887,0.559,1.075,0.765,0.347,0.608,0.570,�k�k��,2.8,��
2022/07/03,10:40,0.606,0.887,0.558,1.075,0.765,0.347,0.607,0.570,�k��,2.5,��
2022/07/03,10:50,0.603,0.888,0.560,1.076,0.764,0.343,0.607,0.571,��,2.6,��
2022/07/03,11:00,0.604,0.890,0.559,1.073,0.766,0.344,0.608,0.570,���k��,2.6,��
2022/07/03,11:10,0.606,0.891,0.559,1.074,0.767,0.344,0.606,0.571,��,2.3,��
2022/07/03,11:20,0.605,0.888,0.556,1.075,0.766,0.344,0.607,0.570,��,2.3,��
2022/07/03,11:30,0.605,0.887,0.557,1.073,0.766,0.346,0.608,0.570,��,2.2,��
2022/07/03,11:40,0.605,0.888,0.558,1.073,0.764,0.343,0.608,0.572,���쓌,2.0,��
2022/07/03,11:50,0.606,0.889,0.557,1.074,0.767,0.345,0.606,0.572,���쓌,2.6,��
2022/07/03,12:00,0.607,0.888,0.558,1.072,0.765,0.343,0.608,0.571,�쓌,2.6,��
2022/07/03,12:10,0.605,0.886,0.558,1.072,0.767,0.349,0.609,0.570,�쓌,2.6,��
2022/07/03,12:20,0.607,0.887,0.560,1.073,0.767,0.348,0.608,0.571,�쓌,2.3,��
2022/07/03,12:30,0.607,0.887,0.559,1.072,0.766,0.348,0.610,0.570,���쓌,2.2,��
2022/07/03,12:40,0.610,0.891,0.560,1.073,0.765,0.349,0.609,0.571,���쓌,2.0,��
2022/07/03,12:50,0.608,0.889,0.562,1.073,0.766,0.349,0.609,0.573,���쓌,2.3,��
2022/07/03,13:00,0.608,0.887,0.559,1.072,0.766,0.349,0.610,0.571,���쓌,1.2,��
2022/07/03,13:10,0.607,0.888,0.559,1.073,0.766,0.350,0.609,0.571,�쓌,2.8,��
2022/07/03,13:20,0.608,0.888,0.559,1.074,0.767,0.349,0.610,0.571,�쓌,2.0,��
2022/07/03,13:30,0.608,0.889,0.561,1.074,0.767,0.349,0.610,0.572,�쓌,1.7,��
2022/07/03,13:40,0.609,0.888,0.560,1.074,0.768,0.351,0.610,0.571,�쓌,2.0,��
2022/07/03,13:50,0.608,0.890,0.559,1.076,0.768,0.349,0.610,0.573,�쓌,2.0,��
2022/07/03,14:00,0.609,0.888,0.561,1.075,0.768,0.351,0.609,0.571,��쓌,2.3,��
2022/07/03,14:10,0.607,0.888,0.561,1.074,0.767,0.348,0.609,0.571,��쓌,2.8,��
2022/07/03,14:20,0.609,0.889,0.560,1.076,0.769,0.350,0.608,0.572,�쓌,2.0,��
2022/07/03,14:30,0.608,0.889,0.561,1.074,0.770,0.351,0.609,0.571,�쓌,1.4,��
2022/07/03,14:40,0.607,0.891,0.559,1.074,0.770,0.350,0.608,0.572,�쓌,2.0,��
2022/07/03,14:50,0.607,0.888,0.560,1.074,0.770,0.350,0.607,0.571,�쓌,2.0,��
2022/07/03,15:00,0.606,0.887,0.559,1.076,0.770,0.349,0.608,0.572,�쓌,2.0,��
2022/07/03,15:10,0.608,0.889,0.560,1.076,0.770,0.349,0.608,0.571,��쓌,2.0,��
2022/07/03,15:20,0.607,0.888,0.559,1.075,0.766,0.350,0.608,0.571,��,2.6,��
2022/07/03,15:30,0.606,0.889,0.559,1.076,0.769,0.350,0.608,0.571,��,2.0,��
2022/07/03,15:40,0.606,0.888,0.561,1.076,0.768,0.348,0.608,0.571,��쓌,2.2,��
2022/07/03,15:50,0.607,0.888,0.560,1.074,0.767,0.349,0.608,0.571,��,2.0,��
2022/07/03,16:00,0.606,0.888,0.559,1.075,0.767,0.350,0.609,0.570,��쓌,1.9,��
2022/07/03,16:10,0.607,0.889,0.561,1.076,0.769,0.349,0.608,0.569,��,1.7,��
2022/07/03,16:20,0.610,0.889,0.560,1.073,0.768,0.350,0.608,0.570,��,1.4,��
2022/07/03,16:30,0.606,0.889,0.559,1.077,0.769,0.350,0.608,0.571,��쓌,1.2,��
2022/07/03,16:40,0.608,0.888,0.560,1.077,0.771,0.349,0.608,0.571,��,1.1,��
2022/07/03,16:50,0.607,0.890,0.562,1.075,0.768,0.349,0.607,0.571,��,1.7,��
2022/07/03,17:00,0.609,0.889,0.560,1.076,0.767,0.349,0.609,0.571,��쐼,1.9,��
2022/07/03,17:10,0.609,0.890,0.561,1.075,0.768,0.350,0.607,0.573,��쐼,1.4,��
2022/07/03,17:20,0.607,0.888,0.561,1.077,0.768,0.350,0.607,0.571,��,0.9,��
2022/07/03,17:30,0.608,0.889,0.563,1.077,0.767,0.350,0.609,0.570,���쐼,0.6,��
2022/07/03,17:40,0.608,0.890,0.561,1.076,0.768,0.353,0.608,0.574,��,1.2,��
2022/07/03,17:50,0.609,0.890,0.560,1.078,0.768,0.350,0.608,0.572,��,1.1,��
2022/07/03,18:00,0.609,0.889,0.559,1.076,0.769,0.351,0.609,0.572,��쐼,1.2,��
2022/07/03,18:10,0.609,0.890,0.560,1.078,0.767,0.350,0.607,0.571,��,1.1,��
2022/07/03,18:20,0.610,0.891,0.561,1.078,0.768,0.351,0.609,0.572,��쐼,0.9,��
2022/07/03,18:30,0.609,0.888,0.562,1.077,0.767,0.351,0.609,0.571,��쐼,1.4,��
2022/07/03,18:40,0.609,0.891,0.561,1.078,0.769,0.353,0.607,0.572,-,CALM,��
2022/07/03,18:50,0.608,0.889,0.561,1.077,0.768,0.352,0.609,0.573,�k�k��,1.2,��
2022/07/03,19:00,0.608,0.893,0.563,1.080,0.769,0.352,0.609,0.571,���쐼,1.4,��
2022/07/03,19:10,0.610,0.891,0.562,1.076,0.767,0.351,0.609,0.571,�쐼,1.1,��
2022/07/03,19:20,0.610,0.889,0.561,1.076,0.770,0.352,0.610,0.571,��,1.2,��
2022/07/03,19:30,0.608,0.887,0.561,1.077,0.768,0.351,0.610,0.572,��,1.5,��
2022/07/03,19:40,0.609,0.889,0.562,1.076,0.770,0.353,0.608,0.573,�k�k��,0.6,�L
2022/07/03,19:50,0.609,0.889,0.560,1.077,0.767,0.352,0.609,0.572,�k��,0.9,�L
2022/07/03,20:00,0.607,0.890,0.563,1.079,0.769,0.350,0.610,0.571,-,CALM,�L
2022/07/03,20:10,0.609,0.891,0.562,1.078,0.769,0.352,0.609,0.573,-,CALM,�L
2022/07/03,20:20,0.608,0.888,0.562,1.076,0.769,0.352,0.609,0.573,���쐼,0.9,�L
2022/07/03,20:30,0.606,0.887,0.560,1.075,0.765,0.351,0.608,0.571,��,1.9,�L
2022/07/03,20:40,0.608,0.888,0.560,1.078,0.767,0.351,0.607,0.570,��,2.0,�L
2022/07/03,20:50,0.607,0.886,0.559,1.075,0.767,0.351,0.609,0.573,���k��,2.0,�L
2022/07/03,21:00,0.605,0.888,0.561,1.075,0.766,0.351,0.609,0.571,��,3.9,�L
2022/07/03,21:10,0.606,0.887,0.560,1.075,0.766,0.351,0.609,0.572,���쐼,3.7,�L
2022/07/03,21:20,0.606,0.886,0.560,1.077,0.766,0.352,0.609,0.571,���쐼,3.2,�L
2022/07/03,21:30,0.606,0.886,0.560,1.076,0.765,0.352,0.610,0.571,�쐼,3.0,��
2022/07/03,21:40,0.606,0.886,0.561,1.076,0.766,0.350,0.608,0.571,��쐼,2.0,��
2022/07/03,21:50,0.607,0.889,0.561,1.076,0.766,0.351,0.609,0.573,��쐼,3.4,��
2022/07/03,22:00,0.606,0.889,0.562,1.076,0.767,0.350,0.608,0.573,��,3.6,��
2022/07/03,22:10,0.605,0.888,0.560,1.077,0.766,0.350,0.609,0.573,��,2.8,��
2022/07/03,22:20,0.606,0.887,0.561,1.076,0.766,0.350,0.609,0.574,��,2.6,��
2022/07/03,22:30,0.605,0.887,0.560,1.078,0.768,0.350,0.609,0.573,��,2.5,�L
2022/07/03,22:40,0.607,0.887,0.560,1.076,0.766,0.351,0.609,0.573,��,2.5,��
2022/07/03,22:50,0.606,0.887,0.562,1.077,0.768,0.352,0.608,0.574,��쓌,4.3,��
2022/07/03,23:00,0.606,0.890,0.561,1.078,0.764,0.351,0.609,0.573,��,3.3,�L
2022/07/03,23:10,0.606,0.888,0.559,1.076,0.766,0.352,0.609,0.573,��쓌,3.3,��
2022/07/03,23:20,0.607,0.887,0.561,1.080,0.767,0.351,0.610,0.573,��,2.6,��
2022/07/03,23:30,0.606,0.887,0.561,1.076,0.766,0.351,0.610,0.574,��,1.7,��
2022/07/03,23:40,0.607,0.887,0.561,1.077,0.767,0.352,0.609,0.572,��쐼,2.9,��
2022/07/03,23:50,0.608,0.886,0.560,1.078,0.766,0.352,0.608,0.573,��쐼,3.1,�L
